Weather History for Beaver Island, MI

Change the Weather History Date:

Saturday, July 13, 2013

  Actual Average Record
Temperature  
Mean Temperature 65 °F -  
Max Temperature 78 °F 75 °F 90 °F (2012)
Min Temperature 52 °F 57 °F 46 °F (1967)
Growing Degree Days 15 (Base 50)    
Moisture  
Dew Point 54 °F    
Average Humidity 68    
Maximum Humidity 99    
Minimum Humidity 41    
Precipitation  
Precipitation 0.00 in - - ()
Sea Level Pressure  
Sea Level Pressure 30.17 in    
Wind  
Wind Speed 5 mph (SSW)    
Max Wind Speed 15 mph    
Max Gust Speed 23 mph    
Visibility 10 miles    
Events      
Averages and records for this station are not official NWS values.
T = Trace of Precipitation, MM = Missing Value Source: NWS Daily Summary

Daily Weather History Graph

Daily Weather History Graph

Search for Another Location

Airport:

Trip Planner

Search our weather history database for the weather conditions in past years. The results will help you decide how hot, cold, wet, or windy it might be!

Date:

Astronomy

Jul. 13, 2013 Rise Set
Actual Time 6:05 AM EDT 9:29 PM EDT
Civil Twilight 5:28 AM EDT 10:06 PM EDT
Nautical Twilight 4:40 AM EDT 10:54 PM EDT
Astronomical Twilight 3:38 AM EDT 11:56 PM EDT
Moon 11:40 AM EDT (7/13) 11:49 PM EDT (7/13)
Length of Visible Light 16h 37m
Length of Day
15h 24m
Waxing Crescent, 25% of the Moon is Illuminated
Jul 13
Waxing Crescent
Jul 15
First Quarter
Jul 22
Full
Jul 29
Last Quarter
Aug 6
New

Hourly Weather History & Observations

Time (EDT) Temp. Dew Point Humidity Pressure Visibility Wind Dir Wind Speed Gust Speed Precip Events Conditions
12:15 AM 52.7 °F 52.0 °F 97% 30.10 in 10.0 mi Calm Calm - N/A   Clear
12:35 AM 53.1 °F 52.9 °F 99% 30.11 in 10.0 mi Calm Calm - N/A   Clear
12:55 AM 52.0 °F 51.4 °F 98% 30.12 in 10.0 mi Calm Calm - N/A   Clear
1:15 AM 54.1 °F 54.0 °F 99% 30.11 in 10.0 mi SE 3.5 mph - N/A   Clear
1:34 AM 57.6 °F 54.7 °F 90% 30.12 in 10.0 mi SE 4.6 mph - N/A   Clear
1:55 AM 58.6 °F 55.4 °F 89% 30.12 in 10.0 mi SSE 4.6 mph - N/A   Clear
2:14 AM 57.9 °F 55.2 °F 91% 30.13 in 10.0 mi SE 4.6 mph - N/A   Clear
2:35 AM 58.3 °F 54.9 °F 88% 30.12 in 10.0 mi Calm Calm - N/A   Clear
2:55 AM 59.0 °F 53.6 °F 82% 30.13 in 10.0 mi SSE 5.8 mph - N/A   Clear
3:15 AM 58.8 °F 52.7 °F 80% 30.13 in 10.0 mi SSE 3.5 mph - N/A   Clear
3:35 AM 58.5 °F 53.8 °F 84% 30.14 in 10.0 mi South 4.6 mph - N/A   Clear
3:55 AM 58.1 °F 54.1 °F 87% 30.14 in 10.0 mi South 3.5 mph - N/A   Clear
4:15 AM 58.1 °F 54.5 °F 88% 30.14 in 10.0 mi South 4.6 mph - N/A   Clear
4:35 AM 57.9 °F 55.2 °F 91% 30.15 in 10.0 mi SSE 3.5 mph - N/A   Clear
4:55 AM 57.2 °F 55.4 °F 94% 30.14 in 10.0 mi SE 4.6 mph - N/A   Clear
5:15 AM 57.6 °F 56.3 °F 96% 30.14 in 10.0 mi SE 4.6 mph - N/A   Clear
5:35 AM 58.3 °F 57.2 °F 96% 30.14 in 10.0 mi SE 5.8 mph - N/A   Clear
5:55 AM 58.5 °F 57.2 °F 96% 30.15 in 10.0 mi SSE 4.6 mph - N/A   Clear
6:15 AM 58.5 °F 56.7 °F 94% 30.15 in 10.0 mi SSE 3.5 mph - N/A   Clear
6:35 AM 58.6 °F 56.7 °F 93% 30.15 in 10.0 mi SSE 5.8 mph - N/A   Clear
6:55 AM 59.9 °F 57.2 °F 91% 30.15 in 10.0 mi SSE 5.8 mph - N/A   Clear
7:15 AM 60.4 °F 57.2 °F 89% 30.15 in 10.0 mi SSE 6.9 mph - N/A   Clear
7:35 AM 61.9 °F 57.4 °F 85% 30.16 in 10.0 mi SSE 4.6 mph - N/A   Clear
7:55 AM 63.3 °F 57.4 °F 81% 30.18 in 10.0 mi South 5.8 mph - N/A   Clear
8:15 AM 65.5 °F 56.5 °F 73% 30.19 in 10.0 mi South 5.8 mph - N/A   Clear
8:35 AM 66.6 °F 55.9 °F 69% 30.19 in 10.0 mi South 6.9 mph - N/A   Clear
8:55 AM 68.0 °F 56.3 °F 66% 30.19 in 10.0 mi South 4.6 mph - N/A   Clear
9:15 AM 69.3 °F 55.9 °F 62% 30.19 in 10.0 mi South 9.2 mph - N/A   Clear
9:35 AM 70.2 °F 55.9 °F 61% 30.18 in 10.0 mi South 5.8 mph - N/A   Clear
9:55 AM 71.4 °F 55.9 °F 58% 30.18 in 10.0 mi SSW 10.4 mph - N/A   Clear
10:15 AM 71.6 °F 55.8 °F 57% 30.18 in 10.0 mi SSW 12.7 mph 18.4 mph N/A   Clear
10:35 AM 72.1 °F 55.9 °F 57% 30.18 in 10.0 mi SSW 10.4 mph 18.4 mph N/A   Clear
10:55 AM 71.1 °F 56.1 °F 59% 30.19 in 10.0 mi SSW 10.4 mph 16.1 mph N/A   Clear
11:15 AM 71.6 °F 56.1 °F 58% 30.20 in 10.0 mi SSW 8.1 mph 16.1 mph N/A   Clear
11:35 AM 72.9 °F 57.0 °F 57% 30.19 in 10.0 mi SSW 6.9 mph - N/A   Clear
11:55 AM 75.6 °F 56.3 °F 51% 30.20 in 10.0 mi SW 12.7 mph 19.6 mph N/A   Clear
12:15 PM 73.9 °F 55.6 °F 53% 30.20 in 10.0 mi SSW 15.0 mph 19.6 mph N/A   Clear
12:35 PM 75.2 °F 55.6 °F 50% 30.20 in 10.0 mi SW 13.8 mph 23.0 mph N/A   Clear
12:54 PM 74.5 °F 55.8 °F 52% 30.21 in 10.0 mi SSW 11.5 mph 21.9 mph N/A   Clear
1:15 PM 74.5 °F 55.8 °F 52% 30.20 in 10.0 mi SW 9.2 mph 20.7 mph N/A   Clear
1:35 PM 75.7 °F 55.0 °F 49% 30.20 in 10.0 mi SW 12.7 mph 17.3 mph N/A   Clear
1:55 PM 75.4 °F 54.5 °F 48% 30.19 in 10.0 mi SW 10.4 mph - N/A   Clear
2:15 PM 76.3 °F 54.0 °F 46% 30.19 in 10.0 mi SSW 9.2 mph - N/A   Clear
2:35 PM 76.3 °F 54.9 °F 47% 30.19 in 10.0 mi SW 11.5 mph 17.3 mph N/A   Clear
2:55 PM 77.0 °F 53.8 °F 44% 30.20 in 10.0 mi SW 10.4 mph - N/A   Clear
3:15 PM 76.5 °F 52.5 °F 43% 30.20 in 10.0 mi SSW 10.4 mph 17.3 mph N/A   Clear
3:35 PM 77.2 °F 52.2 °F 42% 30.19 in 10.0 mi SW 12.7 mph 16.1 mph N/A   Clear
3:55 PM 77.4 °F 53.4 °F 43% 30.19 in 10.0 mi SW 11.5 mph - N/A   Clear
4:15 PM 77.0 °F 52.5 °F 42% 30.19 in 10.0 mi SW 12.7 mph 17.3 mph N/A   Clear
4:35 PM 77.5 °F 52.3 °F 41% 30.18 in 10.0 mi SSW 9.2 mph 18.4 mph N/A   Clear
4:55 PM 78.1 °F 52.5 °F 41% 30.19 in 10.0 mi SW 11.5 mph - N/A   Clear
5:15 PM 77.0 °F 52.7 °F 43% 30.18 in 10.0 mi SW 10.4 mph - N/A   Clear
5:35 PM 77.0 °F 51.8 °F 41% 30.18 in 10.0 mi WSW 12.7 mph - N/A   Clear
5:55 PM 75.6 °F 51.8 °F 43% 30.19 in 10.0 mi SW 9.2 mph - N/A   Clear
6:15 PM 74.3 °F 52.5 °F 46% 30.18 in 10.0 mi SW 10.4 mph - N/A   Clear
6:35 PM 74.7 °F 52.3 °F 46% 30.18 in 10.0 mi SW 9.2 mph - N/A   Clear
6:55 PM 73.8 °F 52.0 °F 46% 30.18 in 10.0 mi SW 9.2 mph - N/A   Clear
7:15 PM 73.2 °F 52.2 °F 48% 30.18 in 10.0 mi SSW 5.8 mph - N/A   Clear
7:35 PM 73.0 °F 51.4 °F 47% 30.18 in 10.0 mi SSW 4.6 mph - N/A   Clear
7:55 PM 71.6 °F 51.3 °F 49% 30.18 in 10.0 mi SW 6.9 mph - N/A   Clear
8:15 PM 70.7 °F 52.0 °F 51% 30.18 in 10.0 mi SSW 5.8 mph - N/A   Clear
8:35 PM 69.3 °F 52.3 °F 55% 30.18 in 10.0 mi SW 5.8 mph - N/A   Clear
8:55 PM 67.1 °F 53.2 °F 61% 30.18 in 10.0 mi SW 5.8 mph - N/A   Clear
9:15 PM 65.3 °F 53.8 °F 66% 30.18 in 10.0 mi SSW 3.5 mph - N/A   Clear
9:35 PM 64.0 °F 53.8 °F 69% 30.18 in 10.0 mi Calm Calm - N/A   Clear
9:55 PM 61.2 °F 53.6 °F 76% 30.19 in 10.0 mi East 3.5 mph - N/A   Clear
10:15 PM 60.1 °F 53.6 °F 79% 30.19 in 10.0 mi Calm Calm - N/A   Clear
10:35 PM 59.0 °F 53.6 °F 82% 30.20 in 10.0 mi Calm Calm - N/A   Clear
10:55 PM 58.1 °F 53.4 °F 84% 30.20 in 10.0 mi Calm Calm - N/A   Clear
11:15 PM 57.6 °F 55.0 °F 91% 30.20 in 10.0 mi Calm Calm - N/A   Clear
11:35 PM 57.4 °F 55.4 °F 93% 30.20 in 10.0 mi Calm Calm - N/A   Clear
11:55 PM 56.5 °F 54.7 °F 94% 30.20 in 10.0 mi Calm Calm - N/A   Clear